Weather in Kaskesruchey

Russia / Republic of Karelia     61°12′18″N   35°35′59″E
temp.,
°C
wind,
m/s
gust,
m/s
humid.,
%
clouds,
%
prec.,
mm/h
press.,
hPa
HPBL,
m
28 february, sun
sun2800:00−3nw249698 0.1 1015153
03:00−4wnw119799 0.1 101422
06:00−4sw2297100 0.2 101356
09:00−6wsw129697 0.3 101422
12:00−3sw129590 0.0 1014209
15:00−1ssw239476 0.0 1015335
18:00−1wsw369499 0.0 1016314
21:00−1sw369799 0.1 1017221
1 march, mon
mon100:00−1wsw379798 0.2 1017260
03:000wsw489499 0.2 1016460
06:00−1wsw5129393 0.0 1014417
09:00+1wsw5129797 0.0 1012566
12:00+1w61298100 0.0 1010637
15:00+1wsw61396100 0.1 1008600
18:00+1w61497100 0.1 1005692
21:00+1wnw51295100 0.3 1004640
2 march, tue
tue200:000w6139789 0.9 1003790
03:00−1wnw5148772 0.9 1004578
06:00−1wnw6148567 0.0 1002867
09:00−2wnw7148383 0.0 10041029
12:00−1nw71387100 0.1 10051140
15:00−1nw71287100 0.3 1008914
18:00−3nw4138896 0.0 1010562
21:00−5nw4128989 0.0 1012335
3 march, wed
wed300:00−4wnw4128653 0.0 1013411
03:00−6nw4119256 0.0 1014281
06:00−7wnw38940 0.0 1015184
09:00−6nw499426 0.1 1016341
12:00−3wnw368996 0.0 1015365
15:00−1w488761 0.0 1014502
18:00−2wsw51091100 0.0 1011374
21:00−3wsw6149294 0.0 1008511
4 march, thu
thu400:00−2wsw71491100 0.1 1002717
03:00+1wsw71497100 0.3 998892
06:00+1wsw71594100 0.1 994916
09:000wnw81388100 0.5 9921206
12:00−3wnw7138082 0.2 9931383
15:00−4nw7148091 0.4 9951403
18:00−6nw61384100 0.1 998943
21:00−9nw4138877 0.1 1000449